Location: Praha
(50.0830°N, 14.4670°E)
Time: 00:31:02
(UTC+02:00)

ISS - Pass Details

Date: 29 October 2020
Orbit: 417 x 420 km, 51.6° (Epoch: 23 October)

Event Time Altitude Azimuth Distance (km) Brightness Sun altitude
Exits shadow 05:56:25 12° 270° (W) 1,391 -1.8 -8.7°
Maximum altitude 05:59:31 68° 354° (N) 454 -3.7 -8.2°
Drops below altitude 10° 06:02:52 10° 78° (ENE) 1,499 0.3 -7.7°
Sets 06:04:58 0° 81° (E) 2,363 1.6 -7.4°
